Regional Weather Roundup
Issued by NWS Charleston, SC

Current Version | Previous Version | Graphics & Text | Print | Product List | Glossary On
Versions: 1 2 3 4 5 6 7 8 9 10 11 12 13 14 15 16 17 18 19 20 21 22 23 24 25 26 27 28 29 30 31 32 33 34 35 36 37 38 39 40 41 42 43 44 45 46 47 48 49 50
000 ASUS42 KCHS 281510 RWRCHS REGIONAL WEATHER ROUNDUP NATIONAL WEATHER SERVICE CHARLESTON SC 1000 AM EST SUN DEC 28 2014 NOTE: "FAIR" INDICATES FEW OR NO CLOUDS BELOW 12,000 FEET WITH NO SIGNIFICANT WEATHER AND/OR OBSTRUCTIONS TO VISIBILITY. NOT ALL STATIONS ARE QUALITY CONTROLLED BY THE NATIONAL WEATHER SERVICE. USE DATA WITH CAUTION...ESPECIALLY DEWPOINT OBSERVATIONS. SCZ027-030-031-034>040-042>050-281600- ...SOUTHEAST SOUTH CAROLINA... CITY SKY/WX TMP DP RH WIND PRES REMARKS N CHARLESTON PTSUNNY 64 55 72 CALM 30.16S WATERFRONT PRK N/A 61 N/A N/A CALM N/A MOUNT PLEASANT FAIR 66 61 82 CALM 30.16S PINOPOLIS N/A 64 54 68 MISG 30.07F MONCKS CORNER FAIR 64 55 72 CALM 30.15S SUMMERVILLE FAIR 63 55 77 CALM 30.16S BEAUFORT MCAS PTSUNNY 63 56 78 CALM 30.16S BEAUFORT ARPT PTSUNNY 63 61 94 CALM 30.15F HILTON HEAD IS MOSUNNY 68 64 88 S6 30.16S WALTERBORO MOSUNNY 63 63 100 CALM 30.16S ALLENDALE CLOUDY 61 55 82 CALM 30.14S ...SOUTHERN MIDLANDS AND PEE DEE... CITY SKY/WX TMP DP RH WIND PRES REMARKS GEORGETOWN NOT AVBL KINGSTREE NOT AVBL ORANGEBURG MOSUNNY 63 55 75 S6 30.14S BARNWELL CLOUDY 61 57 88 CALM 30.14F AIKEN CLOUDY 59 59 100 S3 30.16S MANNING FAIR 63 55 77 S3 30.14S COLUMBIA CLOUDY 59 54 83 S3 30.11F SUMTER CLOUDY 63 57 80 S7 30.10F FLORENCE CLOUDY 60 53 77 SW8 30.11S MYRTLE BEACH MOSUNNY 64 55 72 SW6 30.16S N MYRTLE BEACH MOSUNNY 64 54 69 SW6 30.14F $$ GAZ063-065-086>088-099>101-113>116-118-119-134>141-150-281600- ...SOUTHEAST GEORGIA... CITY SKY/WX TMP DP RH WIND PRES REMARKS SAVANNAH ARPT CLOUDY 61 56 83 CALM 30.16S HUNTER AAF PTSUNNY 68 63 83 W5 30.14S FORT STEWART CLOUDY 61 58 90 CALM 30.14F STATESBORO CLOUDY 60 60 100 CALM 30.14F SYLVANIA CLOUDY 60 58 91 CALM 30.15F CLAXTON FOG 59 59 100 CALM 30.15F VSB 1 ...CSRA...CENTRAL AND FAR SOUTHEAST GEORGIA... CITY SKY/WX TMP DP RH WIND PRES REMARKS THOMSON CLOUDY 58 58 100 CALM 30.16F AUGUSTA-BUSH CLOUDY 59 56 89 SE6 30.13S AUGUSTA-DANIEL CLOUDY 60 56 86 SE8 30.13S SWAINSBORO CLOUDY 63 63 100 S3 30.14S VIDALIA CLOUDY 61 61 100 S3 30.14F FOG EASTMAN CLOUDY 60 60 100 S3 30.15S FOG HAZLEHURST CLOUDY 63 63 100 S6 30.12F ALMA CLOUDY 63 62 97 SW3 30.14S FOG WAYCROSS FOG 66 66 100 S8 30.15S VSB 1/2 JESUP FOG 63 63 100 SW5 30.15F VSB<1/4 BAXLEY CLOUDY 64 63 94 SW6 30.14S FOG BRUNSWICK MOSUNNY 70 64 83 SW5 30.16S SAINT SIMONS SUNNY 68 63 84 S5 30.16S $$ SCZ027-028-034-036>038-045-046-048>050-GAZ119-141-281600- ...LAKE AND SUPPLEMENTAL COASTAL OBSERVATIONS... STATION/POSITION TIME TEMP WIND PRES WAVE SWELL AIR SEA DIR/SP/G HT/PER HT/PER/DIR (UTC) (F) (DEG/KT/KT) (MB) (FT/S) (FT/S/D) UPR LAKE MARION NOT AVBL WINYAH BAY 1400 56 CALM 1020.0S LAKE MURRAY 1400 56 200/ 6/ 6 1019.0F ACE BASIN NERRS 1400 56 CALM 1021.0S FORT PULASKI 1500 61 56 70/ 2/ 3 1021.5S SAPELO ISLAND 1400 62 180/ 5 1021.0S $$ ANZ835-935-AMZ111-154-330-350-352-354-370-450-454-472-281600- ...C-MAN AND BUOY OBSERVATIONS... STATION/POSITION TIME TEMP WIND PRES WAVE SWELL AIR SEA DIR/SP/G HT/PER HT/PER/DIR (UTC) (F) (DEG/KT/KT) (MB) (FT/S) (FT/S/D) BUOY 41004 1500 72 74 230/ 10/ 12 1021.1R 3/15 3/15 BUOY 41008 1500 62 59 180/ 6/ 8 1021.0S 3/15 3/ 80/15 FOLLY BEACH CMAN 1400 58 CALM / 3 1021.8R CAPERS NEARSHORE 1400 57 60/ 2/ 2 N/A FRIPP NEARSHORE NOT AVBL STATION/POSITION TIME TEMP WIND PRES WAVE SWELL AIR SEA DIR/SP/G HT/PER HT/PER/DIR (UTC) (F) (DEG/KT/KT) (MB) (FT/S) (FT/S/D) 5E ST. MARYS GA 1400 60 N/A 3/15 2/ 90/15 FRYING PAN BUOY 1500 68 68 250/ 8/ 10 1021.6S 4/15 3/120/15 BUOY 41025 1500 72 1019.7R 4/14 CAPE LOOKOUT NC 1400 65 210/ 8/ 13 1020.0R BUOY 41002 1419 73 75 200/ 16/ 21 1022.7R 5/13 5/ 70/13 BUOY 41010 1500 75 77 140/ 8/ 10 1022.3R 5/15 5/ 80/15 ST AUGUSTINE FL 1500 65 220/ 2/ 3 1022.4F $$

USA.gov is the U.S. government's official web portal to all federal, state and local government web resources and services.